Regional Weather Roundup
Issued by NWS

Home | Current Version | Previous Version | Text Only | Print | Product List | Glossary Off
Versions: 1 2 3 4 5 6 7 8 9 10 11 12 13 14 15 16 17 18 19 20 21 22 23 24 25 26 27 28 29 30 31 32 33 34 35 36 37 38 39 40 41 42 43 44 45 46 47 48 49 50

000
ASUS43 KLOT 010312
RWRIL

ILLINOIS REGIONAL WEATHER ROUNDUP
NATIONAL WEATHER SERVICE CHICAGO/ROMEOVILLE IL
1000 PM CDT FRI SEP 30 2016

NOTE: "FAIR" INDICATES FEW OR NO CLOUDS BELOW 12,000 FEET WITH NO
SIGNIFICANT WEATHER AND/OR OBSTRUCTIONS TO VISIBILITY.

* THESE STATIONS ARE NOT UNDER NWS QUALITY CONTROL. THEY ALSO MAY NOT
  REPORT WEATHER SUCH AS PRECIPITATION OR FOG.

ILZ001-002-007-009-015-016-024-010400-
NORTHWEST ILLINOIS

CITY           SKY/WX    TMP DP  RH WIND       PRES   REMARKS
MOLINE         CLOUDY    62  59  90 N6        30.10S
STERLING*      CLOUDY    60  59  96 N10       30.09F
SAVANNA*       CLOUDY    60  58  92 N6        30.11S
$$

ILZ003-004-008-010-011-017-018-010400-
NORTH CENTRAL ILLINOIS

CITY           SKY/WX    TMP DP  RH WIND       PRES   REMARKS
ROCKFORD       CLOUDY    60  58  92 N8        30.11F FOG
FREEPORT*      CLOUDY    60  56  89 N5        30.12S
ROCHELLE*      RAIN      60  59  98 N7        30.09S
DE KALB*       DRIZZLE   60  60  98 N5        30.08S
$$

ILZ005-006-012>014-019>023-010400-
NORTHEAST ILLINOIS

CITY           SKY/WX    TMP DP  RH WIND       PRES   REMARKS
CHICAGO-OHARE  CLOUDY    62  58  86 NE7       30.05F
CHICAGO-MIDWAY CLOUDY    64  57  78 NE12      30.05S
AURORA         CLOUDY    62  59  90 N7        30.06F
LANSING*       CLOUDY    61  60  97 NE8       30.04S
JOLIET*        CLOUDY    63  59  86 NE6       30.04F
WAUKEGAN       CLOUDY    62  59  90 E9        30.06F
DUPAGE AIRPORT CLOUDY    61  58  90 N7        30.05F
KANKAKEE*      CLOUDY    60  59  98 CALM      30.04S
WHEELING       LGT RAIN  62  58  86 NE6       30.07F
MORRIS*        LGT RAIN  62  57  84 NE3       30.04S
ROMEOVILLE*    CLOUDY    61  60  96 NE6       30.05S
NORTHERLY ISL    N/A     62  58  86 NE13        N/A
$$

LMZ740>746-010400-
SOUTHERN LAKE MICHIGAN

STATION/POSITION SKY/WX   TEMP    WIND        PRES    VSBY  WAVE
                          AIR SEA DIR/SP/G                  HT/PER
                          (F)     (DEG/KT/KT) (MB)    (MI)  (FT/S)
SOUTHERN BUOY              62 67   80/ 17/ 21 1017.6F         4/ 6
WILMETTE HARBOR            61 58  100/  8/ 12   N/A           5/ 6
HARRISON CRIB              64      70/ 19/ 21   N/A
BURNHAM HARBOR             61      50/  8/ 13   N/A
CALUMET HARBOR             62      40/ 11/ 15 1017.0F
BURNS HARBOR               62      50/ 14/ 16 1017.3F
MICHIGAN CITY              60      40/  9/ 11   N/A
MICHIGAN CITY 6N           61 64   40/ 10/ 14   N/A           4/ 6
ST. JOSEPH                 56 50   60/  2/  4 1018.0          3/ 5
$$

ILZ025>027-034>036-040-047-049-050-058-095>099-010400-
WEST-CENTRAL ILLINOIS

CITY           SKY/WX    TMP DP  RH WIND       PRES   REMARKS
QUINCY         CLOUDY    61  58  90 N12       30.09R
GALESBURG*     CLOUDY    60  58  93 N9        30.09S
MACOMB*        CLOUDY    61  60  96 N9        30.10S
JACKSONVILLE*  CLOUDY    61  60  95 NW9       30.06S
PITTSFIELD*    CLOUDY    62  59  91 N6        30.08S
$$

ILZ028>032-037-038-041>044-048-051>054-059>061-010400-
CENTRAL ILLINOIS

CITY           SKY/WX    TMP DP  RH WIND       PRES   REMARKS
PONTIAC        CLOUDY    62  62 100 NE12      30.04S
BLOOMINGTON    CLOUDY    61  59  93 N12       30.04S
DECATUR        CLOUDY    64  60  87 N8        30.01F
PEORIA         CLOUDY    61  61 100 N7        30.05F
LACON*         CLOUDY    62  59  88 N7        30.05S
LINCOLN*       DRIZZLE   62  62  99 N5        30.03S
SPRINGFIELD    RAIN      62  61  96 N8        30.04S FOG
TAYLORVILLE    CLOUDY    62  61  97 NW5       30.03S
$$

ILZ033-039-045-046-055>057-062-063-010400-
EAST-CENTRAL ILLINOIS

CITY           SKY/WX    TMP DP  RH WIND       PRES   REMARKS
CHAMPAIGN      LGT RAIN  62  60  93 NE10      30.00F
RANTOUL*       CLOUDY    64  62  96 NE9       30.01S
MATTOON        LGT RAIN  61  59  93 E5        30.00R
PARIS*         MOCLDY    60  60 100 CALM      30.01R
$$

ILZ079-100>102-010400-
SOUTHWEST ILLINOIS

CITY           SKY/WX    TMP DP  RH WIND       PRES   REMARKS
ALTON          CLOUDY    61  59  94 NW6       30.05S
BELLEVILLE     PTCLDY    62  62 100 VRB5      30.02S
CAHOKIA*       RAIN      63  59  87 N12       30.05R FOG
SPARTA*        DRIZZLE   61  60  97 NW6       30.04S
$$

ILZ064>066-069>071-074>076-080>082-084>086-088>090-092>094-010400-
SOUTH-CENTRAL ILLINOIS

CITY           SKY/WX    TMP DP  RH WIND       PRES   REMARKS
CARBONDALE     CLOUDY    61  61 100 W6        30.02S
CAIRO*         PTCLDY    61  60  99 SW3       30.03S
EFFINGHAM*     HVY RAIN  62  62 100 CALM      30.02R
MARION         CLOUDY    63  63 100 CALM      30.02S
MT. VERNON     CLOUDY    63  55  77 CALM      30.01S
CENTRALIA*     PTCLDY    62  62  99 NW7       30.00F
SALEM*         MOCLDY    63  61  94 CALM      30.00F FOG
METROPOLIS*    MOCLDY    62  60  95 SW6       30.03R
$$

ILZ067-068-072-073-078-083-087-091-010400-
SOUTHEAST ILLINOIS

CITY           SKY/WX    TMP DP  RH WIND       PRES   REMARKS
LAWRENCEVILLE  CLOUDY    60  57  89 CALM      30.00S
FLORA*         CLOUDY    61  60  97 NW5       30.00R
FAIRFIELD*       N/A     58  58 100 CALM      29.99S
HARRISBURG*    LGT RAIN  57  57 100 W5        30.01F
ROBINSON*      CLOUDY    57  56  97 CALM      30.01R
CARMI*         CLEAR     57  57 100 CALM      29.99S
$$

ABBREVIATIONS USED IN REMARKS
   TC - TEMPERATURE IN CELSIUS
  WCI - WIND CHILL INDEX
   HX - HEAT INDEX
  VSB - VISIBILITY
$$





USA.gov is the U.S. government's official web portal to all federal, state and local government web resources and services.